Location: Sangrey
(48.2845°N, 109.8206°W)
Time: 06:27:52
(UTC+00:00)

BlueWalker 3 - Pass Details

Date: 06 December 2022
Orbit: 499 x 517 km, 53.2° (Epoch: 27 January)

Event Time Altitude Azimuth Distance (km) Brightness Sun altitude
Rises 00:23:51 0° 286° (WNW) 2,638 6.5 -9.3°
Reaches altitude 10° 00:26:09 10° 294° (WNW) 1,746 5.3 -9.7°
Maximum altitude 00:29:54 40° 6° (N) 764 2.6 -10.2°
Enters shadow 00:32:46 16° 72° (ENE) 1,420 3.5 -10.7°
